STARLINK-1246 (45235 NORAD) Tracking and Keplerian Element Data

This shows tracking and keplerian element data for the satellite.

Feedback or suggestion? Click here.




ElementValue
Catalog45235
NameSTARLINK-1246
Epoch Orbit2182
Epoch Day189.91668981
Epoch Year2020
RAAN342.6782
Inclination52.999
Eccentricity0.0001352
Argument of Perigee95.0237
Mean Anonmoly183.4185
Mean Motion15.0555943
Decay Rate0.00028342
L11 45235U 20012BK 20189.91668981 .00028342 00000-0 19576-2 0 9991
L22 45235 52.9990 342.6782 0001352 95.0237 183.4185 15.05559430 21824

Live tracking and technical data element details for STARLINK-1246 (NORAD 45235). STARLINK-1246 can be tracked NOW for your location showing map with azimuth and elevation plus other details from your city location.

Track the satellite on the map from your city or location and see movement details for azimuth, elevation, latitude, longitude, range, height, and movement on the map or in text.







IsCatalogInMostPopularTable: catalog: 45235, numindb: 30
Update: records affected: 1



GetName: 45235 STARLINK-1246

Hit Count: updated at: Thu, 09 Jul 2020 02:11:18 GMT